Find Chuangxin-16B

NORAD ID: 53876 Int'l Des: 2022-102 Owner: IMICAS Country: CN operational
LEOCIRCULAR

Current View

Loading 3D Globe...

About Chuangxin-16B

Description loading...

Upcoming Passes

Passes for default location (London). Set your location on the main map for personalized predictions.

Altitude History

Loading altitude history...

Two-Line Element Set

1 53876U 22102B 26149.54357050 .00046190 00000-0 97927-3 0 9994
2 53876 28.9921 321.0739 0002413 70.8497 289.2373 15.43717988203824
Epoch: May 29, 2026 • Age: 24 hours

Current Status

Altitude 432.1 km
Velocity 7.66 km/s
Sub-Earth Point 27.52°N, 14.83°W
Launch Date Aug 23, 2022
Age 3.7 years
Type other

Technical Details

Classification Payload
Mass 100.00 kg
Dry Mass 100.00 kg
Total Mass 100.00 kg
Length 1.00 m
Diameter 0.50 m
Span 2.00 m
Shape Box+pan
Manufacturer IMICAS
Bus Type CX16
Phase Status In Orbit
Owner/State IMICAS/CN

Most Searched